Location: La Brionne
(46.1728°N, 1.7849°E)
Time: 20:39:52
(UTC+00:00)

Cosmos 2228 - Pass Details

Date: 16 June 2021
Orbit: 588 x 618 km, 82.5° (Epoch: 01 August)

Event Time Altitude Azimuth Distance (km) Brightness Sun altitude
Rises 22:53:24 0° 347° (NNW) 2,904 8.2 -19.1°
Reaches altitude 10° 22:55:39 10° 344° (NNW) 1,994 6.9 -19.2°
Maximum altitude 23:00:00 61° 265° (W) 708 3.3 -19.4°
Enters shadow 23:01:23 40° 204° (SSW) 921 3.5 -19.4°
